Location: Rounton
(54.4000°N, 1.3500°W)
Time: 02:58:19
(UTC+00:00)

Envisat - Pass Details

Date: 24 October 2021
Orbit: 764 x 766 km, 98.2° (Epoch: 28 November)

Event Time Altitude Azimuth Distance (km) Brightness Sun altitude
Rises 05:15:36 0° 22° (NNE) 3,247 6.7 -23.2°
Reaches altitude 10° 05:18:20 10° 36° (NE) 2,315 6.1 -22.8°
Maximum altitude 05:22:31 25° 91° (E) 1,516 5.3 -22.2°
Drops below altitude 10° 05:26:39 10° 146° (SE) 2,300 5.8 -21.6°
Sets 05:29:20 0° 159° (SSE) 3,221 6.4 -21.2°
